RJA125 OJAI-EDDF

Flight info

Callsign RJA125
Flight time N/A
Altitude 36000
Route LOSIL M319 SESMO M690 NOVPA J981 DATOK L550 GENIV L324 LAKTO DCT OTHON UN128 RDS UL609 MES DCT GIKAS DCT DISOR DCT LONTA UL608 DOLEV DCT MITNO DCT YULHU DCT DOBOT DCT LURID DCT BEDOX DCT SIMBA DCT AKINI T161 DEBHI SPESA5C
Aircraft A320/M-SDE3FGHIRWY/LB1

Departure

Time 2026-04-29 12:52
Airport Queen Alia International Airport (OJAI)

Arrival

Time N/A
Airport Frankfurt Main Airport (EDDF)
Time Latitude Longitude Altitude Speed Heading
2026-04-29 12:46 31.72535 35.98863 2416 ft 4 kts 328°
2026-04-29 12:46 31.72518 35.98883 2417 ft 4 kts 277°
2026-04-29 12:46 31.72517 35.98892 2417 ft 0 kts 260°
2026-04-29 12:48 31.72517 35.98891 2417 ft 1 kts 260°
2026-04-29 12:48 31.72522 35.98886 2415 ft 1 kts 319°
2026-04-29 12:48 31.72550 35.98903 2418 ft 8 kts 26°
2026-04-29 12:48 31.72613 35.98917 2416 ft 12 kts 348°
2026-04-29 12:49 31.72684 35.98972 2418 ft 18 kts 75°
2026-04-29 12:49 31.72710 35.99150 2417 ft 24 kts 81°
2026-04-29 12:49 31.72739 35.99347 2416 ft 25 kts 80°
2026-04-29 12:49 31.72769 35.99550 2418 ft 26 kts 80°
2026-04-29 12:50 31.72800 35.99759 2417 ft 26 kts 80°
2026-04-29 12:50 31.72832 35.99975 2417 ft 27 kts 80°
2026-04-29 12:50 31.72865 36.00197 2418 ft 28 kts 80°
2026-04-29 12:50 31.72900 36.00425 2418 ft 29 kts 80°
2026-04-29 12:51 31.72934 36.00659 2418 ft 29 kts 80°
2026-04-29 12:51 31.73049 36.00779 2418 ft 25 kts 353°
2026-04-29 12:51 31.73207 36.00717 2416 ft 22 kts 290°
2026-04-29 12:51 31.73190 36.00502 2417 ft 45 kts 261°
2026-04-29 12:52 31.73099 35.99893 2418 ft 103 kts 260°
2026-04-29 12:52 31.72955 35.98884 2419 ft 146 kts 260°
2026-04-29 12:52 31.72767 35.97600 2674 ft 163 kts 260°
2026-04-29 12:52 31.72579 35.96290 3306 ft 163 kts 263°
2026-04-29 12:53 31.72386 35.94959 3808 ft 171 kts 263°
2026-04-29 12:53 31.72177 35.93492 4000 ft 193 kts 264°
2026-04-29 12:53 31.71695 35.91925 4164 ft 221 kts 234°
2026-04-29 12:53 31.70363 35.90844 4413 ft 252 kts 204°
2026-04-29 12:54 31.68623 35.90177 4846 ft 270 kts 199°
2026-04-29 12:54 31.66794 35.89564 5580 ft 276 kts 197°
2026-04-29 12:54 31.64930 35.88965 6400 ft 279 kts 198°
2026-04-29 12:54 31.63044 35.88359 7144 ft 281 kts 197°
2026-04-29 12:55 31.61158 35.87742 7980 ft 281 kts 197°
2026-04-29 12:55 31.59308 35.87125 8858 ft 279 kts 198°
2026-04-29 12:55 31.57444 35.86494 9697 ft 279 kts 198°
2026-04-29 12:55 31.55569 35.85855 10350 ft 286 kts 198°
2026-04-29 12:56 31.53582 35.85174 10491 ft 309 kts 198°
2026-04-29 12:56 31.51446 35.84443 10613 ft 331 kts 198°
2026-04-29 12:56 31.49189 35.83673 10956 ft 343 kts 198°
2026-04-29 12:56 31.46873 35.82883 11500 ft 349 kts 198°
2026-04-29 12:57 31.44529 35.82085 12098 ft 353 kts 197°
2026-04-29 12:57 31.42154 35.81280 12675 ft 357 kts 197°
2026-04-29 12:57 31.39752 35.80467 13223 ft 362 kts 198°
2026-04-29 12:57 31.37319 35.79644 13824 ft 365 kts 198°
2026-04-29 12:58 31.34871 35.78813 14331 ft 368 kts 198°
2026-04-29 12:58 31.32399 35.77974 14854 ft 371 kts 198°
2026-04-29 12:58 31.29908 35.77128 15353 ft 374 kts 198°
2026-04-29 12:58 31.27401 35.76275 15857 ft 377 kts 198°
2026-04-29 12:59 31.24873 35.75415 16360 ft 379 kts 198°
2026-04-29 12:59 31.22328 35.74550 16863 ft 382 kts 198°
2026-04-29 12:59 31.19762 35.73675 17373 ft 385 kts 198°
2026-04-29 12:59 31.17176 35.72799 17888 ft 388 kts 198°
2026-04-29 13:00 31.15454 35.72218 18226 ft 390 kts 198°
2026-04-29 13:00 31.11975 35.71046 18827 ft 395 kts 198°
2026-04-29 13:00 31.10188 35.70448 19144 ft 396 kts 198°
2026-04-29 13:00 31.06666 35.69256 19766 ft 400 kts 199°
2026-04-29 13:01 31.04082 35.68082 20191 ft 398 kts 213°
2026-04-29 13:01 31.01956 35.66052 20626 ft 395 kts 231°
2026-04-29 13:01 31.00763 35.64392 20913 ft 396 kts 232°
2026-04-29 13:01 30.98684 35.62263 21348 ft 404 kts 215°
2026-04-29 13:02 30.96088 35.60934 21770 ft 414 kts 200°
2026-04-29 13:02 30.93297 35.60072 22168 ft 416 kts 198°
2026-04-29 13:02 30.90480 35.59230 22565 ft 419 kts 198°
2026-04-29 13:02 30.87643 35.58391 22973 ft 422 kts 199°
2026-04-29 13:03 30.84788 35.57543 23368 ft 425 kts 199°
2026-04-29 13:03 30.81920 35.56684 23706 ft 427 kts 199°
2026-04-29 13:03 30.79031 35.55819 24016 ft 430 kts 200°
2026-04-29 13:03 30.76129 35.54949 24318 ft 432 kts 200°
2026-04-29 13:04 30.73246 35.54086 24635 ft 434 kts 200°
2026-04-29 13:04 30.70314 35.53208 24953 ft 436 kts 200°
2026-04-29 13:04 30.67369 35.52318 25276 ft 439 kts 200°
2026-04-29 13:04 30.64408 35.51424 25596 ft 441 kts 200°
2026-04-29 13:05 30.61428 35.50526 25915 ft 443 kts 200°
2026-04-29 13:05 30.58434 35.49627 26215 ft 446 kts 200°
2026-04-29 13:05 30.55412 35.48725 26543 ft 448 kts 200°
2026-04-29 13:05 30.52373 35.47819 26849 ft 452 kts 200°
2026-04-29 13:06 30.49323 35.46914 27241 ft 452 kts 200°
2026-04-29 13:06 30.46321 35.46023 27703 ft 451 kts 200°
2026-04-29 13:06 30.43284 35.45121 28168 ft 450 kts 200°
2026-04-29 13:06 30.40254 35.44224 28597 ft 449 kts 200°
2026-04-29 13:07 30.37231 35.43323 29026 ft 448 kts 200°
2026-04-29 13:07 30.34216 35.42420 29453 ft 447 kts 200°
2026-04-29 13:07 30.31206 35.41519 29917 ft 447 kts 200°
2026-04-29 13:07 30.28194 35.40625 30316 ft 446 kts 200°
2026-04-29 13:08 30.25194 35.39740 30695 ft 445 kts 201°
2026-04-29 13:08 30.22196 35.38855 31101 ft 444 kts 201°
2026-04-29 13:08 30.19207 35.37971 31485 ft 443 kts 201°
2026-04-29 13:08 30.16261 35.37004 31841 ft 436 kts 208°
2026-04-29 13:09 30.13642 35.35383 32221 ft 421 kts 223°
2026-04-29 13:09 30.11540 35.33129 32594 ft 407 kts 237°
2026-04-29 13:09 30.10056 35.30404 32986 ft 396 kts 251°
2026-04-29 13:09 30.09221 35.27421 33393 ft 388 kts 263°
2026-04-29 13:10 30.09036 35.24341 33778 ft 383 kts 275°
2026-04-29 13:10 30.09485 35.21328 34118 ft 381 kts 287°
2026-04-29 13:10 30.10530 35.18521 34420 ft 382 kts 298°
2026-04-29 13:10 30.12043 35.15989 34690 ft 384 kts 303°
2026-04-29 13:11 30.13619 35.13500 34929 ft 384 kts 303°
2026-04-29 13:11 30.15198 35.11010 35185 ft 384 kts 303°
2026-04-29 13:11 30.16774 35.08523 35438 ft 384 kts 302°
2026-04-29 13:11 30.18350 35.06032 35692 ft 383 kts 302°
2026-04-29 13:12 30.19922 35.03544 35892 ft 384 kts 302°
2026-04-29 13:12 30.23081 34.98548 35964 ft 392 kts 302°
2026-04-29 13:13 30.26338 34.93396 35968 ft 399 kts 302°
2026-04-29 13:13 30.29610 34.88193 35966 ft 400 kts 302°
2026-04-29 13:14 30.32884 34.82981 35974 ft 400 kts 302°
2026-04-29 13:14 30.36159 34.77757 35975 ft 401 kts 302°
2026-04-29 13:15 30.39438 34.72521 36003 ft 401 kts 302°
2026-04-29 13:15 30.42721 34.67291 35999 ft 402 kts 303°
2026-04-29 13:16 30.46006 34.62047 36004 ft 402 kts 303°
2026-04-29 13:16 30.49293 34.56802 36010 ft 402 kts 302°
2026-04-29 13:17 30.52574 34.51548 36014 ft 402 kts 302°
2026-04-29 13:17 30.55847 34.46288 36011 ft 402 kts 303°
2026-04-29 13:18 30.59118 34.41017 36014 ft 402 kts 303°
2026-04-29 13:18 30.62367 34.35786 36015 ft 402 kts 303°
2026-04-29 13:19 30.65644 34.30519 36024 ft 402 kts 303°
2026-04-29 13:19 30.68908 34.25239 36025 ft 402 kts 302°
2026-04-29 13:20 30.72172 34.19955 36025 ft 402 kts 303°
2026-04-29 13:20 30.75444 34.14673 36026 ft 403 kts 303°
2026-04-29 13:21 30.78712 34.09383 36030 ft 402 kts 302°
2026-04-29 13:21 30.81970 34.04087 36030 ft 403 kts 302°
2026-04-29 13:22 30.85234 33.98782 36056 ft 403 kts 303°
2026-04-29 13:22 30.88489 33.93476 36054 ft 403 kts 303°
2026-04-29 13:23 30.91744 33.88176 36052 ft 402 kts 303°
2026-04-29 13:23 30.95006 33.82879 36054 ft 402 kts 303°
2026-04-29 13:24 30.98256 33.77571 36051 ft 402 kts 303°
2026-04-29 13:24 31.01502 33.72256 36048 ft 402 kts 302°
2026-04-29 13:25 31.04749 33.66944 36055 ft 402 kts 303°
2026-04-29 13:25 31.09613 33.58970 36051 ft 402 kts 302°
2026-04-29 13:26 31.12848 33.53647 36050 ft 402 kts 302°
2026-04-29 13:26 31.16066 33.48360 36050 ft 402 kts 302°
2026-04-29 13:27 31.19303 33.43036 36051 ft 402 kts 302°
2026-04-29 13:27 31.22526 33.37707 36052 ft 402 kts 302°
2026-04-29 13:28 31.25757 33.32374 36053 ft 402 kts 302°
2026-04-29 13:28 31.28988 33.27030 36054 ft 402 kts 302°
2026-04-29 13:29 31.32207 33.21690 36052 ft 402 kts 302°
2026-04-29 13:29 31.35974 33.16845 36051 ft 409 kts 320°
2026-04-29 13:30 31.38462 33.15182 36051 ft 417 kts 332°
2026-04-29 13:30 31.41271 33.14184 36048 ft 427 kts 344°
2026-04-29 13:30 31.47280 33.13747 36044 ft 434 kts 351°
2026-04-29 13:31 31.53280 33.13447 36043 ft 435 kts 351°
2026-04-29 13:31 31.59341 33.13141 36057 ft 436 kts 351°
2026-04-29 13:32 31.65404 33.12832 36052 ft 436 kts 351°
2026-04-29 13:32 31.71471 33.12522 36050 ft 436 kts 351°
2026-04-29 13:33 31.77466 33.11819 36048 ft 426 kts 339°
2026-04-29 13:33 31.82758 33.09040 36057 ft 411 kts 320°
2026-04-29 13:34 31.86910 33.04539 36046 ft 405 kts 310°
2026-04-29 13:34 31.90768 32.99734 36041 ft 406 kts 310°
2026-04-29 13:35 31.94664 32.94903 36037 ft 407 kts 310°
2026-04-29 13:35 31.98560 32.90058 36043 ft 407 kts 310°
2026-04-29 13:36 32.02454 32.85204 36040 ft 408 kts 310°
2026-04-29 13:36 32.06342 32.80341 36046 ft 408 kts 310°
2026-04-29 13:37 32.10227 32.75468 36051 ft 408 kts 310°
2026-04-29 13:37 32.14113 32.70594 36072 ft 408 kts 310°
2026-04-29 13:38 32.18003 32.65715 36056 ft 409 kts 310°
2026-04-29 13:38 32.21901 32.60825 36053 ft 409 kts 310°
2026-04-29 13:39 32.25798 32.55917 36049 ft 410 kts 310°
2026-04-29 13:39 32.29697 32.51005 36050 ft 410 kts 310°
2026-04-29 13:40 32.33599 32.46085 36049 ft 410 kts 310°
2026-04-29 13:40 32.37495 32.41151 36050 ft 410 kts 310°
2026-04-29 13:41 32.41393 32.36217 36051 ft 410 kts 310°
2026-04-29 13:41 32.45287 32.31287 36049 ft 410 kts 310°
2026-04-29 13:42 32.49180 32.26352 36051 ft 410 kts 310°
2026-04-29 13:42 32.53050 32.21435 36066 ft 410 kts 310°
2026-04-29 13:43 32.56942 32.16481 36058 ft 410 kts 310°
2026-04-29 13:43 32.60840 32.11516 36052 ft 411 kts 310°
2026-04-29 13:44 32.64769 32.06592 36054 ft 412 kts 312°
2026-04-29 13:44 32.68945 32.01921 36055 ft 413 kts 314°
2026-04-29 13:45 32.72484 31.98118 36056 ft 413 kts 314°
2026-04-29 13:45 32.77398 31.92748 36053 ft 412 kts 314°
2026-04-29 13:46 32.80905 31.88840 36051 ft 412 kts 313°
2026-04-29 13:46 32.85050 31.84198 36064 ft 412 kts 313°
2026-04-29 13:47 32.89230 31.79517 36052 ft 413 kts 313°
2026-04-29 13:47 32.93417 31.74835 36052 ft 413 kts 313°
2026-04-29 13:48 32.97608 31.70146 36043 ft 413 kts 313°
2026-04-29 13:48 33.01798 31.65448 36044 ft 413 kts 313°
2026-04-29 13:49 33.05978 31.60748 36044 ft 413 kts 313°
2026-04-29 13:49 33.10164 31.56044 36044 ft 413 kts 313°
2026-04-29 13:50 33.14344 31.51340 36041 ft 413 kts 313°
2026-04-29 13:50 33.18519 31.46627 36072 ft 413 kts 313°
2026-04-29 13:51 33.22694 31.41907 36061 ft 413 kts 313°
2026-04-29 13:51 33.26870 31.37186 36052 ft 414 kts 313°
2026-04-29 13:52 33.31051 31.32447 36046 ft 414 kts 313°
2026-04-29 13:52 33.35205 31.27736 36044 ft 414 kts 313°
2026-04-29 13:53 33.39380 31.22990 36041 ft 414 kts 313°
2026-04-29 13:53 33.43566 31.18235 36042 ft 414 kts 313°
2026-04-29 13:54 33.47750 31.13485 36042 ft 414 kts 313°
2026-04-29 13:54 33.51902 31.08755 36059 ft 414 kts 313°
2026-04-29 13:55 33.56072 31.03991 36049 ft 414 kts 313°
2026-04-29 13:55 33.60242 30.99215 36042 ft 414 kts 313°
2026-04-29 13:56 33.64413 30.94429 36044 ft 414 kts 313°
2026-04-29 13:56 33.68559 30.89682 36040 ft 414 kts 313°
2026-04-29 13:57 33.72728 30.84893 36038 ft 414 kts 313°
2026-04-29 13:57 33.76902 30.80093 36037 ft 415 kts 313°
2026-04-29 13:58 33.81047 30.75323 36030 ft 415 kts 313°
2026-04-29 13:58 33.85210 30.70513 36044 ft 415 kts 313°
2026-04-29 13:59 33.89371 30.65701 36037 ft 415 kts 313°
2026-04-29 13:59 33.93542 30.60877 36032 ft 416 kts 313°
2026-04-29 14:00 33.97712 30.56053 36029 ft 416 kts 313°
2026-04-29 14:00 34.01878 30.51219 36030 ft 416 kts 313°
2026-04-29 14:01 34.06056 30.46381 36026 ft 416 kts 313°
2026-04-29 14:01 34.10225 30.41533 36026 ft 416 kts 313°
2026-04-29 14:02 34.14370 30.36713 36022 ft 416 kts 313°
2026-04-29 14:02 34.18530 30.31845 36034 ft 416 kts 313°
2026-04-29 14:03 34.22693 30.26970 36017 ft 417 kts 313°
2026-04-29 14:03 34.26870 30.22087 36016 ft 417 kts 313°
2026-04-29 14:04 34.31020 30.17228 36017 ft 417 kts 313°
2026-04-29 14:04 34.35196 30.12335 36014 ft 418 kts 313°
2026-04-29 14:05 34.39366 30.07437 36020 ft 418 kts 313°
2026-04-29 14:05 34.43530 30.02531 36018 ft 417 kts 313°
2026-04-29 14:06 34.47680 29.97604 36017 ft 417 kts 312°
2026-04-29 14:06 34.51758 29.92600 36017 ft 417 kts 311°
2026-04-29 14:07 34.55807 29.87557 36014 ft 417 kts 311°
2026-04-29 14:07 34.59839 29.82552 36017 ft 417 kts 311°
2026-04-29 14:08 34.63898 29.77525 36018 ft 417 kts 311°
2026-04-29 14:08 34.67961 29.72504 36019 ft 416 kts 311°
2026-04-29 14:09 34.72026 29.67480 36018 ft 416 kts 311°
2026-04-29 14:09 34.76073 29.62448 36018 ft 416 kts 311°
2026-04-29 14:10 34.80116 29.57415 36017 ft 416 kts 311°
2026-04-29 14:10 34.84161 29.52381 36039 ft 416 kts 311°
2026-04-29 14:11 34.88182 29.47363 36025 ft 416 kts 311°
2026-04-29 14:11 34.92228 29.42314 36019 ft 416 kts 311°
2026-04-29 14:12 34.96268 29.37257 36014 ft 416 kts 311°
2026-04-29 14:12 35.00467 29.32387 36012 ft 419 kts 320°
2026-04-29 14:13 35.05154 29.28137 36009 ft 420 kts 320°
2026-04-29 14:13 35.09836 29.23866 36006 ft 420 kts 320°
2026-04-29 14:14 35.14482 29.19620 36011 ft 419 kts 320°
2026-04-29 14:14 35.19149 29.15352 36024 ft 419 kts 320°
2026-04-29 14:15 35.23817 29.11067 36017 ft 420 kts 320°